Regional Weather Roundup
Issued by NWS Newport/Morehead, NC

Current Version | Previous Version | Text Only | Print | Product List | Glossary On
Versions: 1 2 3 4 5 6 7 8 9 10 11 12 13 14 15 16 17 18 19 20 21 22 23 24 25 26 27 28 29 30 31 32 33 34 35 36 37 38 39 40 41 42 43 44 45 46 47 48 49 50
000 ASUS42 KMHX 251614 RWRMHX WEATHER ROUNDUP FOR EASTERN NORTH CAROLINA NATIONAL WEATHER SERVICE NEWPORT/MOREHEAD CITY NC 1200 PM EDT THU MAY 25 2017 NOTE: "FAIR" INDICATES FEW OR NO CLOUDS BELOW 12,000 FEET WITH NO SIGNIFICANT WEATHER AND/OR OBSTRUCTIONS TO VISIBILITY NCZ015>017-031-032-045>047-102-103-251700- NORTH COAST CITY SKY/WX TMP DP RH WIND PRES REMARKS EDENTON CLOUDY 77 67 70 W10 29.57S ELIZABETH CITY MOSUNNY 78 68 71 S20G30 29.55F KITTY HAWK MOSUNNY 78 64 60 SW6G22 29.57S MANTEO MOSUNNY 78 64 60 SW21G28 29.58S $$ NCZ045>047-081-094-103-104-251700- CENTRAL COAST CITY SKY/WX TMP DP RH WIND PRES REMARKS FRISCO NOT AVBL $$ NCZ095-097-098-100-101-251700- SOUTHERN COAST CITY SKY/WX TMP DP RH WIND PRES REMARKS BEAUFORT SUNNY 77 64 64 SW25G35 29.62F CEDAR ISLAND NOT AVBL JACKSONVILLE PTSUNNY 76 58 53 W16G24 29.60F PINEY ISLAND SUNNY N/A N/A N/A SW25G46 29.60F WILMINGTON MOSUNNY 77 57 50 SW18G28 29.62F $$ NCZ011>013-027>030-043-044-078>080-089-090>093-098-251700- COASTAL PLAIN CITY SKY/WX TMP DP RH WIND PRES REMARKS AHOSKIE N/A 74 65 73 CALM 29.56S CLINTON MOSUNNY 75 60 60 S9G16 29.61F ELIZABETHTOWN MOSUNNY 74 56 53 SW12G22 29.62F GOLDSBORO PTSUNNY 76 58 55 SW23 29.57F GREENVILLE PTSUNNY 75 59 57 SW17G24 29.62S HAVELOCK NOT AVBL KENANSVILLE PTSUNNY 75 57 53 SW10G21 29.61S KINSTON NOT AVBL NEW BERN MOSUNNY 77 61 57 SW16 29.61F RICHLANDS PTSUNNY 76 62 62 SW14G23 29.61F ROCKY MOUNT CLOUDY 73 61 65 SW12G25 29.57F WASHINGTON PTSUNNY 73 62 69 SW12G17 29.59R WHITEVILLE MOSUNNY 74 56 53 SW16G26 29.63S $$ AMZ130-135-150-152-154-156-158-170-250-252-270-ANZ085-086-088-633-658-670-251700- MARINE OBSERVATIONS STATION/POSITION TIME TEMP WIND PRES WAVE SWELL AIR SEA DIR/SP/G HT/PER HT/PER (UTC) (F) (DEG/KT/KT) (MB) (FT/S) (FT/S) CHESAPEAKE LIGHT NOT AVBL 64 E VA BEACH 1550 67 65 190/ 12/ 14 1002.0 6/ 7 5/ 7 DUCK 1548 76 63 220/ 21/ 28 1000.7 2 E DUCK 1600 64 N/A 3/ 7 OREGON INLET 1542 75 70 200/ 25/ 31 1001.8 13E OREGON INLT 1548 66 N/A 6/ 8 2/17 HATTERAS CG 1548 77 73 220/ 16/ 23 1002.7 DIAMOND BUOY 1550 78 77 230/ 27/ 33 1002.8 9/ 7 5/15 CAPE LOOKOUT 1600 76 240/ 16/ 21 1002.8 BEAUFORT LAB 1548 76 72 230/ 7/ 17 1002.4 30 SE NEW RVR IN 1508 74 75 250/ 25/ 33 1003.5 30 SE NEW RVR IN 1543 75 N/A 11/ 8 2/11 27 SE WRIGHTSVLE 1508 73 75 220/ 23/ 33 1003.1 5 SE WRIGHTSVLE 1508 73 74 230/ 16/ 27 1003.8 225 S CAPE HAT 1550 77 76 190/ 23/ 27 1009.3 10/ 8 3/13 41 SE CHARLESTON 1550 72 75 230/ 19/ 27 1006.0 8/ 7 3/ 9 $$

USA.gov is the U.S. government's official web portal to all federal, state and local government web resources and services.